User: anonymous   Login
Location: Theydon Bois
(51.6750°N, 0.1050°E)
Time: 14:06:07
(UTC+01:00)
Language:

SL-08 R/B - Orbit

View from above orbital plane
View from above orbital plane
View from above satellite
View from above satellite

Ground track
Ground track

The orbit data is extracted from the following two-line orbital elements,

1 27819U 03023B   18226.73936830  .00000026  00000-0  12320-4 0  9993
2 27819  82.9453  71.6280 0045626 324.0469  82.6000 13.74211027762048
Epoch (UTC): 14 August 2018 17:44:41
Eccentricity: 0.0045626
inclination: 82.9453°
perigee height: 951 km
apogee height: 1018 km
right ascension of ascending node: 71.6280°
argument of perigee: 324.0469°
revolutions per day: 13.74211027
mean anomaly at epoch: 82.6000°
orbit number at epoch: 76204

The dashed part of the orbit path shows where the satellite is in the earth's shadow,  

DLR